Station SGOF1 - Tyndall AFB Tower C (N4), FL Image indicating link to RSS feed of recent meteorological observations for station SGOF1


Conditions at SGOF1 as of
(5:00 am CDT)
1000 GMT on 07/14/2024:
     

Click on the graph icon in the table below to see a time series plot of the last five days of that observation.

5-day plot - Atmospheric Pressure Atmospheric Pressure (PRES):30.14 in
5-day plot - Pressure Tendency Pressure Tendency (PTDY):+0.00 in ( Steady )
5-day plot - Air Temperature Air Temperature (ATMP): 83.7 °F
Previous observations
TIME
(CDT)
5-day plot - Wind Direction
WDIR
 
5-day plot - Wind Speed
WSPD
kts
5-day plot - Wind Gust
GST
kts
5-day plot - Wave Height
WVHT
ft
5-day plot - Dominant Wave Period
DPD
sec
5-day plot - Average Wave Period
APD
sec
5-day plot - Mean Wave Direction
MWD
 
5-day plot - Atmospheric Pressure
PRES
in
5-day plot - Pressure Tendency
PTDY
in
5-day plot - Air Temperature
ATMP
°F
5-day plot - Water Temperature
WTMP
°F
5-day plot - Dew Point
DEWP
°F
5-day plot - Salinity
SAL
psu
5-day plot - Visibility
VIS
nmi
5-day plot - Tide (above MLLW)
TIDE
ft
2024-07-14 04:00 am-------30.13-0.04 84.6-----
2024-07-14 03:00 am-------30.13-0.04 84.6-----
2024-07-14 02:00 am-------30.14-0.01 84.7-----
2024-07-14 01:00 am-------30.16+0.01 84.9-----
2024-07-14 12:00 am-------30.16+0.02 84.9-----
2024-07-13 11:00 pm-------30.16+0.00 85.3-----
2024-07-13 10:00 pm-------30.15+0.00 84.9-----
2024-07-13 09:00 pm-------30.14+0.00 84.7-----
2024-07-13 08:00 pm-------30.16+0.01 84.4-----
2024-07-13 07:00 pm-------30.16+0.00 84.4-----
2024-07-13 06:00 pm-------30.15-0.02 85.8-----
2024-07-13 05:00 pm-------30.15-0.03 85.8-----
2024-07-13 04:00 pm-------30.16-0.03 86.4-----
2024-07-13 03:00 pm-------30.17-0.04 86.2-----
2024-07-13 02:00 pm-------30.19-0.02 85.5-----
2024-07-13 01:00 pm-------30.19+0.00 85.5-----
2024-07-13 12:00 pm-------30.21+0.01 86.7-----
2024-07-13 11:00 am-------30.21+0.02 84.6-----
2024-07-13 10:00 am-------30.20+0.03 83.8-----
2024-07-13 09:00 am-------30.20+0.05 83.8-----
2024-07-13 08:00 am-------30.19+0.05 84.9-----
2024-07-13 07:00 am-------30.17+0.06 84.6-----
2024-07-13 06:00 am-------30.15+0.05 84.6-----
2024-07-13 05:00 am-------30.14+0.02 84.4-----